Wind_Speed
9 9 8 5 4 5 3 3 2 2 5 20 23 20 11 11 4 5 5 8 12 15 13 12 12 12 12 12 11 10 9 9 7 7 6 6 6 6 6 5 4 5 6 7 7 5 5 5 5
11 10 5 2 4 3 4 4 4 6 23 30 30 28 20 12 20 17 14 11 6 12 12 10 10 10 10 11 11 10 9 9 7 6 5 4 4 4 5 4 4 4 5 6 7 6 6 6 6
11 12 2 4 3 4 3 4 4 5 23 17 7 15 8 7 13 15 16 14 15 14 7 7 7 8 8 8 8 8 7 7 7 6 5 4 3 2 2 3 4 5 6 7 8 9 8 8 8
10 3 1 4 3 6 6 6 6 10 22 25 18 7 13 16 22 23 20 16 14 12 6 6 5 5 4 4 5 6 6 6 6 6 6 6 6 5 4 4 5 6 7 8 10 10 11 11 10
10 1 3 0 4 6 3 4 11 8 9 22 27 7 13 22 17 16 14 10 5 12 14 11 7 3 1 2 4 5 5 6 6 7 8 8 9 9 8 8 7 8 9 10 11 12 13 13 13
4 2 4 2 4 5 5 8 16 18 22 24 22 14 10 17 12 16 11 9 7 8 11 12 11 9 8 6 2 4 6 7 7 8 9 11 12 12 12 11 12 12 12 13 14 14 15 15 16
4 3 3 3 5 2 3 7 8 17 14 4 16 6 12 16 23 19 16 13 11 10 8 8 8 8 9 8 8 6 1 7 9 10 10 11 12 13 14 15 15 15 16 17 17 18 18 18 18
1 4 2 2 3 5 3 5 15 13 11 21 15 6 8 25 26 25 22 19 15 13 9 7 5 4 4 5 6 7 6 6 4 7 11 12 13 15 16 16 16 17 18 19 21 22 22 22 22
4 4 1 3 3 3 3 6 5 11 20 14 12 23 25 34 25 23 20 19 15 11 8 4 2 4 5 5 6 9 9 8 4 5 7 11 13 15 16 17 17 17 18 19 21 23 24 25 26
3 4 6 4 1 3 4 10 7 7 18 21 28 25 24 27 23 17 12 10 7 4 3 3 6 8 9 11 12 11 13 13 12 12 9 9 10 13 15 16 17 18 19 20 21 22 23 26 28
3 6 6 3 3 5 5 4 3 16 3 28 33 28 21 17 12 11 9 2 4 6 8 11 13 12 11 11 13 14 12 13 13 16 14 11 9 10 12 13 14 16 17 17 19 21 23 25 28
3 11 10 6 6 5 5 3 4 2 11 27 29 26 22 19 13 8 4 1 7 12 11 10 10 10 10 9 10 11 12 13 10 10 12 16 16 15 15 15 17 18 17 17 19 24 24 26 28
5 5 12 7 12 7 7 6 2 10 23 27 28 24 19 15 12 8 4 2 6 10 10 8 7 7 9 8 8 8 10 11 12 11 10 10 15 16 18 19 19 20 17 18 19 21 22 24 27
7 7 2 7 9 9 7 4 4 13 23 29 28 24 19 14 10 7 3 3 6 6 6 6 6 6 6 7 7 7 6 7 10 12 10 10 13 15 14 14 16 19 21 20 20 21 22 23 24
8 4 4 4 3 4 9 2 8 12 25 28 27 24 20 14 10 6 0 5 7 4 4 5 6 5 6 6 6 6 7 7 6 6 9 12 11 12 14 17 20 23 27 28 25 25 26 25 25
4 1 3 3 7 7 10 8 9 20 30 28 27 24 21 15 12 8 3 4 6 6 3 3 4 5 5 5 6 7 8 8 7 6 6 6 9 14 15 15 18 18 20 27 30 32 29 29 28
3 4 5 5 8 5 7 7 13 21 32 28 30 28 23 19 14 10 6 4 4 5 6 5 4 3 3 3 3 5 6 7 8 8 7 7 7 9 11 13 15 17 19 20 23 30 34 32 31
6 5 4 6 3 8 8 7 5 22 30 31 32 30 26 22 17 12 8 4 2 3 7 8 6 5 4 3 1 1 3 4 6 8 8 9 9 9 10 11 12 14 17 20 18 19 21 26 28
4 4 5 5 5 6 16 13 8 19 14 25 26 30 28 22 17 13 10 5 2 2 5 8 6 5 4 1 2 1 3 5 8 10 11 10 10 10 10 10 10 11 14 15 17 17 19 20 21
11 11 13 10 9 7 6 10 12 10 14 34 33 31 32 27 23 18 12 7 4 2 5 5 3 3 3 3 2 1 3 6 8 11 14 13 12 11 12 12 12 11 11 12 14 16 16 18 16
14 14 13 10 3 3 6 6 7 6 11 20 30 37 37 36 32 24 16 11 5 2 3 2 4 5 5 4 2 4 6 8 9 11 12 14 14 15 16 16 16 16 16 16 15 14 14 16 14
17 13 13 15 8 5 6 7 7 9 6 12 28 33 39 38 31 25 18 13 6 5 6 6 4 3 2 2 2 3 4 7 9 11 12 13 13 12 14 16 16 17 17 17 17 16 15 15 16
13 9 9 7 5 1 5 3 6 8 7 9 20 31 35 39 35 28 21 14 10 10 9 6 3 2 3 3 3 4 6 6 9 11 11 12 13 12 12 13 14 15 15 15 14 13 13 12 11
8 4 5 4 3 6 6 5 14 8 14 10 17 25 36 39 34 26 20 15 13 13 11 7 4 1 2 3 3 4 5 7 9 11 12 14 15 16 15 14 14 13 13 14 12 10 11 12 12
10 6 1 2 1 10 10 7 23 5 10 16 23 31 41 41 35 30 25 21 18 16 14 11 6 3 2 2 3 3 5 7 9 10 12 14 15 16 18 17 16 15 14 12 11 11 10 10 11
13 15 7 8 6 9 10 9 10 5 19 25 39 39 37 39 35 29 25 23 20 18 16 11 7 5 3 3 1 2 3 4 6 8 10 12 14 15 17 18 17 14 12 10 10 9 9 7 8
10 15 12 3 3 2 5 6 5 6 3 20 28 31 36 39 35 29 26 23 20 18 15 12 9 6 6 4 0 2 4 5 6 7 9 10 10 11 12 15 15 13 11 10 11 11 9 9 10
11 6 4 1 14 17 7 6 6 3 8 12 16 26 29 36 32 28 28 24 20 17 14 13 11 8 6 4 1 2 4 6 7 7 8 8 6 8 11 13 11 8 8 9 8 9 9 9 11
9 14 6 6 8 16 15 9 8 13 14 17 15 23 34 37 33 33 30 24 20 17 14 12 11 10 7 5 3 2 4 5 5 6 6 6 7 9 9 11 9 5 6 8 9 9 9 8 10
5 18 12 7 12 7 6 13 6 9 14 20 23 27 35 36 35 32 27 25 23 19 15 13 12 9 6 6 5 3 0 2 3 4 4 5 8 9 10 10 8 4 5 7 9 9 9 7 9
Wind_Direction
344 340 316 330 50 66 268 245 230 208 80 77 82 84 97 74 79 150 125 116 138 166 163 160 160 159 154 148 146 143 142 143 135 130 119 106 111 125 134 143 159 175 188 193 197 204 204 198 193
344 341 342 34 83 49 304 272 161 91 123 101 89 92 72 80 84 115 118 92 102 167 163 168 167 163 158 155 155 154 155 156 156 157 149 136 121 129 143 161 179 196 204 215 224 231 235 228 214
330 334 343 96 102 163 203 248 203 53 140 119 96 65 70 96 107 123 117 98 91 123 130 176 175 173 167 162 160 163 167 171 175 179 181 182 174 163 173 190 211 224 226 230 236 241 244 244 236
336 322 64 86 209 250 206 241 164 92 82 100 102 61 74 103 104 118 118 109 96 78 86 128 155 173 175 169 170 178 186 191 199 205 208 211 219 222 232 237 242 247 248 244 244 246 247 248 247
347 281 50 45 236 286 223 176 133 105 76 110 103 93 98 105 115 115 108 101 99 95 97 106 102 94 113 202 210 214 214 214 215 220 225 226 230 233 238 246 255 261 264 264 260 256 253 251 250
346 51 50 284 277 291 300 150 96 86 105 111 96 96 93 123 121 118 136 143 130 127 130 126 125 134 145 161 214 256 251 248 243 238 234 231 234 237 239 243 251 257 263 266 269 269 265 261 258
121 77 221 271 278 299 225 83 107 116 127 143 127 107 113 124 128 140 140 136 143 151 157 143 140 149 158 154 157 139 309 297 279 265 258 252 249 249 249 247 248 251 257 263 266 269 271 271 268
48 103 303 267 264 266 166 95 113 107 96 131 129 143 126 137 142 143 141 142 150 150 154 141 144 155 174 193 177 175 186 179 219 281 282 273 264 259 258 259 259 261 262 264 267 270 271 271 273
188 71 290 262 312 246 94 119 102 111 111 128 116 118 130 144 144 150 146 144 150 147 143 148 231 263 266 259 242 230 230 231 231 245 251 262 274 273 270 267 264 262 261 263 265 268 270 271 273
126 122 219 229 275 1 36 112 123 110 107 119 113 127 134 147 159 155 147 134 139 154 197 266 279 267 270 263 257 255 244 241 240 241 236 241 265 273 270 266 266 263 261 259 262 265 268 267 265
214 196 198 253 167 70 8 54 30 122 128 151 140 146 158 176 162 150 147 115 14 347 312 301 303 298 286 269 257 252 252 255 256 250 249 244 236 241 253 257 254 259 263 266 272 273 270 271 273
247 253 229 211 194 151 117 21 37 29 162 151 147 151 160 167 157 142 125 0 322 326 329 321 312 311 306 295 279 275 263 254 256 262 252 242 244 250 252 257 267 269 269 273 275 275 273 273 272
211 266 233 197 187 186 163 133 151 126 140 150 148 156 157 150 136 129 158 251 294 305 313 318 318 319 320 319 315 302 289 276 264 259 257 252 241 248 250 258 263 265 265 269 271 276 280 279 277
308 283 295 146 178 182 164 199 176 170 153 148 155 146 146 150 149 156 199 287 318 331 335 343 335 338 334 333 334 331 316 302 277 263 260 255 253 250 256 259 271 268 265 270 278 275 274 275 278
307 281 317 213 210 216 175 202 212 195 162 150 145 148 151 153 166 168 268 339 346 346 1 344 353 356 356 2 359 354 350 343 334 312 276 263 271 272 271 273 270 279 287 282 280 285 287 282 278
322 121 247 257 182 231 161 249 230 205 166 148 152 154 157 158 160 156 191 291 313 328 357 19 10 357 351 360 360 1 355 346 341 345 324 310 277 268 275 278 278 270 269 275 287 286 288 290 284
283 239 224 303 209 162 184 244 238 228 163 152 158 163 163 159 156 162 184 238 295 321 348 17 30 40 14 339 354 10 7 356 350 339 335 325 320 304 290 285 280 280 276 275 277 287 289 291 288
207 231 250 225 267 185 195 223 248 184 157 162 160 165 165 167 164 170 183 193 222 327 339 345 4 10 31 43 23 29 351 349 338 336 342 342 334 321 314 308 297 290 283 283 280 277 284 289 290
219 239 236 240 233 172 209 211 211 196 159 159 160 167 174 167 165 176 182 185 169 327 315 310 340 344 353 40 142 150 301 345 339 341 341 350 348 339 331 325 319 309 299 293 284 285 289 286 288
249 255 259 283 267 172 199 225 207 207 201 172 168 171 174 167 171 179 186 189 198 284 300 296 337 352 328 324 314 260 287 312 325 329 324 326 326 322 321 318 315 317 316 311 307 308 300 293 300
237 233 249 239 272 268 123 282 267 213 204 180 178 180 177 178 178 182 184 194 197 220 226 153 98 68 50 45 350 280 265 274 279 287 305 314 321 318 313 311 307 304 300 299 305 309 313 309 310
242 231 244 251 229 214 177 249 242 220 212 162 174 171 174 176 183 180 185 195 206 183 165 150 134 91 62 23 353 313 292 298 319 329 329 324 324 323 319 319 314 308 304 302 302 301 301 301 305
246 221 229 207 189 230 193 226 240 198 213 195 177 177 176 178 180 180 187 192 188 173 181 178 143 64 28 18 351 321 312 320 332 331 330 326 332 336 330 327 324 324 324 320 314 309 304 303 304
256 194 47 45 112 247 167 190 241 201 206 181 179 171 171 179 180 180 184 184 183 179 192 201 184 202 349 355 349 342 342 344 340 336 338 346 349 351 350 347 343 339 335 336 337 325 313 308 303
206 139 239 275 238 241 171 208 242 237 223 181 174 173 177 181 178 179 181 185 183 184 195 202 199 223 295 329 344 354 350 350 349 350 358 357 360 4 5 359 356 351 352 350 347 345 334 328 313
220 203 204 202 201 241 180 239 246 262 236 190 180 175 170 178 183 183 186 187 182 187 196 202 204 218 241 261 291 2 3 360 5 8 16 17 18 19 15 11 7 6 7 6 7 358 353 343 322
215 209 197 153 19 73 208 269 301 21 43 152 159 163 172 180 181 182 184 184 183 190 198 208 213 220 223 217 194 9 18 28 32 35 36 34 22 23 19 17 14 19 12 21 31 30 27 18 3
206 170 145 280 225 240 227 228 226 180 145 145 157 170 170 178 179 181 185 185 188 196 203 207 217 223 216 193 106 67 36 34 43 45 51 43 6 9 16 20 17 25 25 18 27 32 34 21 10
210 213 224 186 200 229 250 252 209 191 177 175 182 172 168 177 180 180 181 188 194 198 205 209 211 214 195 164 127 82 56 45 51 43 33 16 343 355 360 9 12 14 23 13 23 24 22 21 12
266 236 204 198 223 221 212 246 308 169 177 179 175 170 178 183 181 181 189 195 197 202 207 207 206 197 180 143 151 160 65 344 350 11 359 338 319 335 350 6 10 19 19 13 9 17 14 6 9
Height
1518 1516 1514 1515 1526 1530 1534 1517 1505 1502 1504 1506 1501 1503 1511 1514 1517 1533 1525 1527 1528 1530 1531 1532 1533 1534 1534 1534 1535 1536 1537 1538 1539 1540 1541 1542 1543 1543 1544 1545 1546 1546 1547 1548 1547 1547 1547 1548 1548
1517 1515 1514 1514 1535 1542 1535 1512 1509 1500 1502 1505 1506 1509 1513 1518 1519 1522 1526 1528 1528 1530 1531 1533 1533 1534 1535 1534 1535 1536 1537 1538 1539 1540 1541 1542 1543 1544 1543 1544 1545 1545 1547 1548 1548 1548 1548 1548 1549
1517 1515 1516 1520 1538 1540 1533 1511 1504 1502 1501 1499 1507 1511 1515 1520 1521 1524 1528 1528 1530 1531 1533 1534 1535 1535 1535 1535 1535 1536 1537 1538 1538 1540 1541 1542 1542 1543 1544 1544 1544 1545 1545 1546 1547 1547 1548 1548 1549
1517 1517 1518 1527 1530 1519 1513 1507 1506 1504 1506 1505 1507 1515 1521 1523 1523 1525 1528 1530 1532 1533 1534 1535 1536 1536 1536 1536 1536 1536 1537 1538 1539 1539 1540 1541 1542 1542 1543 1543 1543 1544 1544 1545 1545 1546 1547 1547 1548
1516 1516 1526 1529 1526 1512 1505 1503 1502 1504 1507 1509 1506 1521 1524 1527 1527 1528 1528 1530 1531 1533 1533 1534 1535 1536 1536 1537 1537 1537 1537 1538 1538 1538 1539 1539 1540 1541 1541 1542 1543 1543 1543 1544 1544 1545 1545 1546 1547
1516 1517 1535 1537 1524 1510 1505 1503 1502 1504 1509 1514 1514 1518 1526 1529 1528 1527 1528 1527 1529 1531 1531 1531 1531 1532 1532 1532 1535 1537 1537 1537 1537 1537 1537 1537 1538 1539 1539 1539 1540 1541 1542 1542 1542 1543 1544 1544 1545
1517 1524 1532 1526 1522 1509 1504 1503 1503 1507 1511 1513 1516 1521 1527 1529 1527 1525 1525 1527 1527 1528 1531 1531 1532 1532 1531 1531 1530 1532 1536 1537 1537 1536 1536 1536 1536 1537 1537 1536 1536 1538 1539 1540 1540 1540 1541 1542 1543
1514 1520 1526 1523 1521 1514 1502 1503 1505 1503 1509 1512 1515 1519 1525 1527 1524 1523 1525 1526 1527 1527 1529 1531 1532 1532 1531 1531 1531 1530 1530 1531 1531 1534 1535 1535 1535 1535 1535 1534 1535 1535 1535 1536 1537 1537 1538 1538 1539
1513 1526 1535 1521 1518 1509 1502 1502 1505 1507 1507 1511 1515 1519 1522 1524 1524 1524 1526 1525 1527 1528 1530 1531 1531 1531 1531 1530 1529 1529 1529 1529 1530 1530 1530 1531 1533 1533 1533 1533 1533 1532 1531 1531 1531 1533 1534 1536 1536
1512 1526 1521 1512 1508 1510 1506 1504 1505 1509 1507 1512 1514 1521 1523 1524 1524 1525 1526 1526 1527 1528 1529 1529 1529 1529 1528 1528 1527 1526 1526 1526 1527 1527 1527 1527 1529 1530 1530 1530 1530 1529 1528 1527 1527 1527 1529 1530 1530
1510 1515 1508 1507 1507 1508 1509 1507 1507 1510 1513 1507 1509 1515 1519 1520 1521 1523 1526 1527 1528 1528 1528 1527 1527 1526 1525 1524 1524 1523 1523 1523 1522 1523 1524 1525 1525 1525 1526 1526 1525 1525 1525 1524 1524 1524 1523 1524 1526
1511 1505 1505 1506 1504 1505 1509 1510 1510 1508 1509 1509 1511 1513 1516 1518 1519 1521 1524 1525 1526 1526 1526 1526 1524 1524 1523 1522 1520 1520 1520 1520 1520 1519 1520 1521 1521 1522 1524 1523 1523 1523 1522 1520 1520 1519 1519 1520 1520
1507 1502 1502 1502 1503 1504 1506 1509 1512 1511 1510 1511 1511 1513 1515 1518 1520 1521 1523 1525 1526 1526 1525 1524 1523 1522 1521 1520 1519 1518 1517 1517 1517 1518 1518 1519 1519 1519 1519 1518 1519 1519 1519 1518 1516 1515 1514 1515 1516
1504 1503 1501 1501 1503 1503 1504 1507 1510 1512 1511 1510 1510 1512 1514 1516 1518 1519 1521 1522 1523 1524 1524 1523 1522 1521 1521 1519 1517 1517 1516 1515 1514 1515 1516 1516 1516 1516 1515 1514 1515 1515 1514 1514 1513 1511 1510 1510 1509
1502 1503 1501 1498 1500 1502 1504 1509 1507 1508 1509 1510 1510 1511 1513 1514 1516 1517 1518 1519 1520 1522 1522 1521 1520 1520 1520 1519 1517 1516 1515 1514 1513 1513 1513 1513 1513 1512 1511 1510 1510 1510 1510 1508 1508 1508 1507 1507 1506
1503 1502 1507 1496 1495 1499 1502 1510 1499 1501 1503 1506 1507 1509 1511 1512 1513 1515 1516 1517 1517 1518 1520 1520 1520 1520 1519 1518 1517 1516 1514 1513 1512 1512 1511 1510 1510 1510 1508 1508 1507 1506 1504 1504 1504 1503 1503 1502 1500
1506 1513 1506 1499 1490 1495 1499 1500 1491 1494 1495 1501 1503 1504 1507 1510 1512 1514 1514 1515 1515 1516 1516 1518 1519 1518 1519 1518 1517 1516 1514 1511 1510 1509 1509 1509 1508 1507 1506 1505 1504 1502 1500 1498 1500 1500 1498 1496 1494
1507 1510 1504 1503 1492 1492 1496 1493 1488 1486 1489 1493 1499 1503 1505 1508 1510 1512 1513 1512 1513 1514 1515 1516 1516 1516 1518 1518 1517 1516 1513 1512 1510 1508 1507 1507 1506 1505 1503 1503 1501 1499 1497 1495 1495 1494 1493 1491 1488
1499 1501 1501 1493 1486 1492 1489 1486 1488 1485 1490 1495 1499 1500 1503 1507 1510 1511 1510 1511 1512 1512 1513 1514 1515 1515 1516 1517 1517 1515 1513 1511 1509 1507 1505 1506 1504 1503 1501 1499 1498 1496 1494 1492 1491 1489 1487 1486 1485
1500 1502 1499 1489 1482 1487 1490 1489 1484 1483 1483 1484 1488 1496 1499 1503 1506 1507 1508 1510 1510 1510 1511 1512 1513 1513 1513 1513 1514 1514 1513 1511 1508 1506 1503 1502 1502 1500 1498 1496 1495 1493 1492 1490 1488 1486 1484 1482 1481
1493 1496 1494 1493 1482 1480 1488 1493 1483 1478 1480 1482 1486 1486 1493 1494 1496 1501 1503 1506 1506 1507 1508 1509 1510 1511 1511 1512 1512 1512 1512 1510 1509 1506 1502 1499 1498 1496 1495 1493 1491 1490 1488 1486 1485 1484 1482 1480 1478
1491 1481 1483 1483 1489 1501 1482 1499 1484 1478 1476 1479 1482 1485 1487 1491 1494 1495 1499 1503 1503 1505 1507 1508 1509 1510 1510 1510 1510 1510 1510 1509 1506 1504 1500 1497 1495 1494 1491 1490 1488 1486 1483 1482 1481 1480 1478 1477 1476
1481 1476 1477 1476 1483 1484 1486 1496 1483 1470 1476 1476 1478 1481 1483 1485 1487 1491 1496 1498 1500 1502 1504 1505 1507 1508 1509 1508 1508 1508 1508 1506 1504 1502 1499 1496 1493 1490 1488 1486 1485 1483 1480 1478 1478 1477 1476 1475 1474
1470 1476 1478 1481 1486 1498 1484 1485 1455 1470 1459 1468 1474 1476 1477 1480 1485 1490 1493 1495 1496 1500 1502 1503 1505 1506 1508 1507 1507 1506 1505 1504 1501 1501 1498 1494 1490 1488 1485 1484 1483 1480 1478 1476 1476 1474 1473 1473 1472
1468 1475 1500 1504 1507 1480 1470 1481 1440 1452 1448 1451 1460 1469 1471 1475 1481 1484 1487 1491 1494 1497 1500 1502 1503 1505 1506 1506 1505 1504 1503 1501 1500 1498 1496 1493 1490 1486 1485 1484 1481 1478 1476 1476 1475 1473 1472 1470 1468
1460 1461 1476 1486 1491 1472 1468 1472 1446 1442 1440 1443 1450 1458 1467 1474 1477 1480 1485 1489 1492 1495 1497 1500 1501 1502 1504 1505 1504 1503 1501 1500 1499 1497 1495 1492 1492 1488 1487 1485 1483 1479 1478 1477 1475 1473 1471 1468 1466
1454 1457 1448 1466 1472 1489 1470 1452 1443 1441 1438 1440 1451 1459 1464 1469 1473 1478 1483 1486 1491 1494 1495 1498 1500 1501 1502 1502 1502 1501 1500 1498 1496 1496 1494 1492 1494 1489 1486 1486 1484 1482 1479 1477 1475 1473 1471 1468 1466
1442 1444 1462 1471 1469 1469 1454 1455 1455 1447 1446 1447 1451 1456 1461 1468 1473 1477 1480 1483 1489 1493 1494 1496 1498 1500 1501 1500 1499 1501 1499 1498 1495 1495 1493 1490 1495 1490 1487 1486 1485 1484 1480 1478 1476 1473 1471 1468 1467
1438 1439 1442 1442 1450 1454 1458 1458 1437 1435 1439 1442 1446 1451 1455 1463 1469 1472 1478 1483 1486 1490 1493 1494 1496 1498 1500 1498 1498 1500 1499 1499 1496 1494 1492 1490 1496 1491 1488 1486 1486 1484 1480 1478 1476 1474 1472 1469 1468
1426 1429 1433 1444 1451 1449 1452 1440 1427 1428 1432 1435 1441 1448 1455 1461 1466 1472 1477 1482 1483 1485 1489 1491 1493 1496 1497 1497 1498 1498 1498 1498 1497 1494 1492 1489 1494 1491 1489 1487 1486 1484 1480 1478 1477 1474 1472 1470 1469